• In Belgien
  • Länderverzeichnis
  • Für 7 Tage
  • Wassertemperatur
  • Satellitenkarten
  • Wetterkarte
  • Widgets
  • user-avatar
    Anmelden

    Stündliche Wetter Kerkira

    Heute, 19 Juni, Dienstag

    Zeit Temperatur Niederschläge Wind Luftdruck Luftfeuchtigkeit
    00:00 +23°C° 0 mm 2 m/S 757 mmHg 82%
    01:00 +23°C° 0 mm 2 m/S 757 mmHg 80%
    02:00 +21°C° 0 mm 2 m/S 757 mmHg 80%
    03:00 +21°C° 0 mm 2 m/S 757 mmHg 80%
    04:00 +21°C° 0 mm 2 m/S 757 mmHg 80%
    05:00 +23°C° 0 mm 2 m/S 758 mmHg 77%
    06:00 +25°C° 0 mm 2 m/S 758 mmHg 74%
    07:00 +27°C° 0 mm 2 m/S 758 mmHg 68%
    08:00 +28°C° 0 mm 1 m/S 758 mmHg 63%
    09:00 +29°C° 0 mm 1 m/S 758 mmHg 58%
    10:00 +31°C° 0 mm 1 m/S 758 mmHg 54%
    11:00 +30°C° 0,5 mm 1 m/S 759 mmHg 57%
    12:00 +30°C° 0,5 mm 1 m/S 759 mmHg 60%
    13:00 +30°C° 0,5 mm 2 m/S 759 mmHg 63%
    14:00 +29°C° 0,4 mm 2 m/S 759 mmHg 67%
    15:00 +28°C° 0,4 mm 2 m/S 759 mmHg 72%
    16:00 +27°C° 0,4 mm 2 m/S 759 mmHg 77%
    17:00 +27°C° 0,1 mm 3 m/S 759 mmHg 78%
    18:00 +26°C° 0,1 mm 3 m/S 759 mmHg 80%
    19:00 +25°C° 0,1 mm 3 m/S 760 mmHg 81%
    20:00 +25°C° 0 mm 3 m/S 760 mmHg 81%
    21:00 +24°C° 0 mm 3 m/S 760 mmHg 81%
    22:00 +24°C° 0 mm 3 m/S 761 mmHg 81%
    23:00 +22°C° 0 mm 3 m/S 761 mmHg 80%

    Morgen, 20 Juni, Mittwoch

    Zeit Temperatur Niederschläge Wind Luftdruck Luftfeuchtigkeit
    00:00 +22°C° 0 mm 3 m/S 761 mmHg 79%
    01:00 +22°C° 0 mm 3 m/S 761 mmHg 79%
    02:00 +21°C° 0 mm 3 m/S 761 mmHg 77%
    03:00 +21°C° 0 mm 3 m/S 761 mmHg 76%
    04:00 +21°C° 0 mm 3 m/S 761 mmHg 74%
    05:00 +23°C° 0 mm 2 m/S 761 mmHg 71%
    06:00 +25°C° 0 mm 2 m/S 761 mmHg 68%
    07:00 +27°C° 0 mm 2 m/S 761 mmHg 65%
    08:00 +29°C° 0 mm 2 m/S 761 mmHg 58%
    09:00 +30°C° 0 mm 1 m/S 761 mmHg 51%
    10:00 +32°C° 0 mm 1 m/S 762 mmHg 45%
    11:00 +32°C° 0 mm 2 m/S 762 mmHg 45%
    12:00 +32°C° 0 mm 2 m/S 761 mmHg 46%
    13:00 +33°C° 0 mm 3 m/S 761 mmHg 46%
    14:00 +31°C° 0 mm 3 m/S 761 mmHg 52%
    15:00 +30°C° 0 mm 3 m/S 761 mmHg 57%
    16:00 +29°C° 0 mm 3 m/S 761 mmHg 63%
    17:00 +28°C° 0 mm 3 m/S 761 mmHg 65%
    18:00 +27°C° 0 mm 3 m/S 761 mmHg 67%
    19:00 +27°C° 0 mm 2 m/S 761 mmHg 69%
    20:00 +26°C° 0 mm 2 m/S 762 mmHg 69%
    21:00 +25°C° 0 mm 2 m/S 762 mmHg 69%
    22:00 +25°C° 0 mm 2 m/S 762 mmHg 69%
    23:00 +24°C° 0 mm 2 m/S 762 mmHg 69%

    übermorgen, 21 Juni, Donnerstag

    Zeit Temperatur Niederschläge Wind Luftdruck Luftfeuchtigkeit
    00:00 +24°C° 0 mm 2 m/S 762 mmHg 68%
    01:00 +23°C° 0 mm 2 m/S 762 mmHg 68%
    02:00 +23°C° 0,1 mm 2 m/S 762 mmHg 68%
    03:00 +23°C° 0,1 mm 2 m/S 762 mmHg 67%
    04:00 +23°C° 0,1 mm 2 m/S 761 mmHg 66%
    05:00 +24°C° 0 mm 2 m/S 761 mmHg 64%
    06:00 +26°C° 0 mm 2 m/S 761 mmHg 63%
    07:00 +27°C° 0 mm 1 m/S 761 mmHg 61%
    08:00 +29°C° 0 mm 1 m/S 761 mmHg 56%
    09:00 +30°C° 0 mm 1 m/S 761 mmHg 52%
    10:00 +31°C° 0 mm 1 m/S 761 mmHg 47%
    11:00 +31°C° 0 mm 2 m/S 761 mmHg 48%
    12:00 +31°C° 0 mm 2 m/S 761 mmHg 50%
    13:00 +31°C° 0 mm 2 m/S 761 mmHg 51%
    14:00 +31°C° 0,1 mm 2 m/S 760 mmHg 53%
    15:00 +31°C° 0,1 mm 2 m/S 760 mmHg 55%
    16:00 +30°C° 0,1 mm 3 m/S 760 mmHg 57%
    17:00 +29°C° 0,5 mm 2 m/S 760 mmHg 64%
    18:00 +27°C° 0,5 mm 2 m/S 760 mmHg 71%
    19:00 +26°C° 0,5 mm 2 m/S 760 mmHg 78%
    20:00 +25°C° 0,2 mm 2 m/S 760 mmHg 78%
    21:00 +25°C° 0,2 mm 2 m/S 760 mmHg 79%
    22:00 +24°C° 0,2 mm 2 m/S 760 mmHg 79%
    23:00 +24°C° 0 mm 2 m/S 760 mmHg 79%

    22 Juni, Freitag

    Zeit Temperatur Niederschläge Wind Luftdruck Luftfeuchtigkeit
    00:00 +23°C° 0 mm 2 m/S 760 mmHg 80%
    01:00 +23°C° 0 mm 2 m/S 760 mmHg 80%
    02:00 +23°C° 0,1 mm 2 m/S 760 mmHg 81%
    03:00 +21°C° 0,1 mm 2 m/S 760 mmHg 81%
    04:00 +22°C° 0,1 mm 1 m/S 759 mmHg 81%
    05:00 +24°C° 0 mm 1 m/S 759 mmHg 78%
    06:00 +25°C° 0 mm 1 m/S 759 mmHg 74%
    07:00 +26°C° 0 mm 1 m/S 759 mmHg 70%
    08:00 +28°C° 0 mm 1 m/S 759 mmHg 66%
    09:00 +29°C° 0 mm 2 m/S 759 mmHg 61%
    10:00 +30°C° 0 mm 3 m/S 759 mmHg 56%
    11:00 +30°C° 0,1 mm 3 m/S 759 mmHg 56%
    12:00 +30°C° 0,1 mm 3 m/S 759 mmHg 57%
    13:00 +30°C° 0,1 mm 3 m/S 759 mmHg 57%
    14:00 +30°C° 0 mm 3 m/S 758 mmHg 57%
    15:00 +30°C° 0 mm 3 m/S 758 mmHg 58%
    16:00 +30°C° 0 mm 3 m/S 758 mmHg 59%
    17:00 +28°C° 0 mm 2 m/S 758 mmHg 65%
    18:00 +27°C° 0 mm 2 m/S 758 mmHg 71%
    19:00 +26°C° 0 mm 2 m/S 758 mmHg 77%
    20:00 +25°C° 0 mm 2 m/S 758 mmHg 80%
    21:00 +24°C° 0 mm 1 m/S 759 mmHg 82%
    22:00 +24°C° 0 mm 1 m/S 759 mmHg 85%
    23:00 +23°C° 0 mm 1 m/S 759 mmHg 85%

    23 Juni, Samstag

    Zeit Temperatur Niederschläge Wind Luftdruck Luftfeuchtigkeit
    00:00 +23°C° 0 mm 1 m/S 759 mmHg 86%
    01:00 +23°C° 0 mm 1 m/S 758 mmHg 87%
    02:00 +22°C° 0 mm 1 m/S 758 mmHg 86%
    03:00 +22°C° 0 mm 1 m/S 758 mmHg 85%
    04:00 +22°C° 0 mm 1 m/S 758 mmHg 84%
    05:00 +24°C° 0 mm 1 m/S 758 mmHg 79%
    06:00 +25°C° 0 mm 1 m/S 759 mmHg 73%
    07:00 +27°C° 0 mm 1 m/S 759 mmHg 68%
    08:00 +28°C° 0 mm 1 m/S 759 mmHg 63%
    09:00 +29°C° 0 mm 1 m/S 759 mmHg 59%
    10:00 +31°C° 0 mm 2 m/S 759 mmHg 55%
    11:00 +31°C° 0 mm 2 m/S 759 mmHg 55%
    12:00 +31°C° 0 mm 2 m/S 759 mmHg 55%
    13:00 +31°C° 0 mm 3 m/S 759 mmHg 55%
    14:00 +31°C° 0,2 mm 3 m/S 759 mmHg 58%
    15:00 +30°C° 0,2 mm 3 m/S 759 mmHg 60%
    16:00 +30°C° 0,2 mm 3 m/S 758 mmHg 63%
    17:00 +29°C° 0,1 mm 3 m/S 759 mmHg 68%
    18:00 +27°C° 0,1 mm 2 m/S 759 mmHg 73%
    19:00 +26°C° 0,1 mm 2 m/S 759 mmHg 78%
    20:00 +25°C° 0,2 mm 2 m/S 759 mmHg 80%
    21:00 +25°C° 0,2 mm 2 m/S 760 mmHg 81%
    22:00 +24°C° 0,2 mm 2 m/S 760 mmHg 82%
    23:00 +24°C° 0,1 mm 2 m/S 760 mmHg 83%

    24 Juni, Sonntag

    Zeit Temperatur Niederschläge Wind Luftdruck Luftfeuchtigkeit
    00:00 +24°C° 0,1 mm 2 m/S 760 mmHg 83%
    01:00 +24°C° 0,1 mm 2 m/S 759 mmHg 83%
    02:00 +23°C° 0,2 mm 2 m/S 759 mmHg 83%
    03:00 +23°C° 0,2 mm 2 m/S 759 mmHg 84%
    04:00 +21°C° 0,2 mm 2 m/S 759 mmHg 84%
    05:00 +24°C° 0,3 mm 2 m/S 759 mmHg 81%
    06:00 +25°C° 0,3 mm 2 m/S 760 mmHg 78%
    07:00 +26°C° 0,3 mm 2 m/S 760 mmHg 75%
    08:00 +27°C° 0,7 mm 2 m/S 760 mmHg 72%
    09:00 +28°C° 0,7 mm 2 m/S 760 mmHg 69%
    10:00 +29°C° 0,7 mm 2 m/S 760 mmHg 66%
    11:00 +29°C° 1,2 mm 2 m/S 760 mmHg 66%
    12:00 +29°C° 1,2 mm 2 m/S 759 mmHg 66%
    13:00 +29°C° 1,2 mm 2 m/S 759 mmHg 67%
    14:00 +29°C° 0,6 mm 2 m/S 759 mmHg 67%
    15:00 +29°C° 0,6 mm 2 m/S 759 mmHg 67%
    16:00 +28°C° 0,6 mm 2 m/S 759 mmHg 67%
    17:00 +27°C° 0,4 mm 2 m/S 759 mmHg 72%
    18:00 +26°C° 0,4 mm 2 m/S 759 mmHg 76%
    19:00 +25°C° 0,4 mm 2 m/S 760 mmHg 81%
    20:00 +24°C° 0,4 mm 2 m/S 760 mmHg 82%
    21:00 +23°C° 0,4 mm 2 m/S 760 mmHg 83%
    22:00 +23°C° 0,4 mm 2 m/S 760 mmHg 85%
    23:00 +23°C° 0,7 mm 2 m/S 760 mmHg 85%
    Mehr zeigen